Weather in Komsomolskoye

Russia / The Kabardino-Balkar Republic     43°51′45″N   43°56′11″E
В апреле 2022 года жителям России запретили посещать сайт meteo.paraplan.net по решению Генеральной прокуратуры. Аудитория сайта уменьшилась в 10 раз. Владельцы сайта не видят смысла в поддержке погодного сервера в таких условиях. Сайт будет закрыт в октябре.
temp.,
°C
wind,
m/s
gust,
m/s
humid.,
%
clouds,
%
prec.,
mm/h
press.,
hPa
HPBL,
m
5 october, wed
wed500:00+17nnw2575100 0.0 1020252
03:00+17nw237499 0.0 1020160
06:00+16nnw2477100 0.0 1022235
09:00+17n1282100 0.1 1022268
12:00+17n4570100 0.1 1023515
15:00+18nnw4458100 0.1 1023699
18:00+16nw4677100 0.1 1024312
21:00+16nw2479100 0.1 1025226
6 october, thu
thu600:00+15n2384100 0.1 1025222
03:00+15n1287100 0.4 1025208
06:00+14n1190100 0.3 1025112
09:00+15nne1288100 0.4 1025336
12:00+15nne2386100 0.1 1025393
15:00+15ne2386100 0.2 1025336
18:00+14e1189100 0.1 102673
21:00+14ese0089100 0.1 102640
7 october, fri
fri700:00+14sse0090100 0.1 102629
03:00+14ene1189100 0.1 102643
06:00+14e2390100 0.0 1025158
09:00+15e3583100 0.1 1025415
12:00+16e457094 0.0 1024615
15:00+19ese455795 0.0 10231188
18:00+17se126590 0.0 102330
21:00+15e355643 0.0 1023128
8 october, sat
sat800:00+12e376850 0.0 1023135
03:00+13e4981100 0.0 1023307
06:00+12e498749 0.0 1022314
09:00+14e5981100 0.0 1022483
12:00+16e6975100 0.1 1021885
15:00+18ese5870100 0.1 10191161
18:00+17e61069100 0.1 1019846
21:00+15e61074100 0.1 1018641
9 october, sun
sun900:00+14ene4877100 0.0 1018488
03:00+14ene3780100 0.0 1017485
06:00+14ene2584100 0.0 1016349
09:00+16e2282100 0.0 1016469
12:00+19wnw2164100 0.0 1015998
15:00+21nw2256100 0.0 1013966
18:00+17wnw4769100 0.1 1013172
21:00+16wnw2475100 0.1 101477